Location: Derby
(52.9213°N, 1.4761°W)
Time: 02:11:23
(UTC+01:00)

A-11 Canister half - Pass Details

Date: 26 May 2025
Orbit: 1524 x 1684 km, 47.3° (Epoch: 12 June)

Event Time Altitude Azimuth Distance (km) Brightness Sun altitude
Rises 21:44:11 0° 270° (W) 4,715 12.3 -4.2°
Reaches altitude 10° 21:47:15 10° 267° (W) 3,748 11.7 -4.6°
Maximum altitude 21:56:32 61° 190° (S) 1,776 9.2 -5.5°
Drops below altitude 10° 22:06:09 10° 114° (ESE) 3,869 10.6 -6.5°
Enters shadow 22:08:44 - 111° (ESE) 4,676 11.0 -6.7°
